Location: State Camp
(41.2367°N, 77.7828°W)
Time: 18:49:01
(UTC-04:00)

ADEOS Rocket - Visible Passes

Search period start: 28 June 2017 00:00
Search period end: 08 July 2017 00:00
Orbit: 860 x 1306 km, 98.8° (Epoch: 27 June)

Date Brightness Start Highest point End Pass type
(mag) Time Alt. Az. Time Alt. Az. Time Alt. Az.
28 Jun 5.1 01:44:27 10° NE 01:49:40 20° E 01:53:24 14° SE visible
28 Jun 3.4 03:28:22 10° N 03:35:56 76° WNW 03:40:21 25° SSW visible
29 Jun 3.9 02:39:40 10° NNE 02:46:57 52° E 02:50:41 27° SSE visible
29 Jun 4.4 04:25:34 10° N 04:32:00 32° WNW 04:37:38 11° WSW visible
30 Jun 5.0 01:51:50 10° NE 01:57:29 23° E 02:01:01 16° SE visible
30 Jun 3.5 03:36:09 10° N 03:43:34 66° WNW 03:47:58 24° SSW visible
01 Jul 3.7 02:47:20 10° NNE 02:54:40 60° E 02:58:18 29° SSE visible
01 Jul 4.6 04:33:28 10° N 04:39:33 28° WNW 04:45:12 10° WSW visible
02 Jul 4.8 01:59:18 10° NE 02:05:16 27° E 02:08:38 18° SE visible
02 Jul 3.6 03:43:57 10° N 03:51:11 58° WNW 03:55:35 22° SW visible
03 Jul 3.5 02:55:02 10° NNE 03:02:21 68° E 03:05:54 30° S visible
03 Jul 4.7 04:41:26 10° N 04:47:04 25° WNW 04:52:20 10° WSW visible
04 Jul 4.6 02:06:49 10° NNE 02:13:02 30° E 02:16:14 21° SE visible
04 Jul 3.7 03:51:46 10° N 03:58:47 50° WNW 04:03:11 21° SW visible
05 Jul 5.4 01:20:45 10° ENE 01:23:15 12° E 01:25:39 10° ESE visible
05 Jul 3.3 03:02:44 10° NNE 03:10:02 78° ESE 03:13:30 31° S visible
05 Jul 4.8 04:49:26 10° NNW 04:54:34 21° WNW 04:59:24 10° WSW visible
06 Jul 4.4 02:14:22 10° NNE 02:20:47 35° E 02:23:49 24° SE visible
06 Jul 3.9 03:59:36 10° N 04:06:21 44° WNW 04:10:45 19° SW visible
07 Jul 5.3 01:27:38 10° NE 01:31:04 14° E 01:34:07 10° ESE visible
07 Jul 3.2 03:10:27 10° NNE 03:17:41 88° ESE 03:21:04 32° SSW visible
07 Jul 5.0 04:57:30 10° NNW 05:02:03 18° NW 05:06:22 10° W visible
